Mt. Pocono, PA

10:14 PM EST on November 11, 2019 (GMT -0500)
Pocono Mountains Municipal

Weather History for KMPO - October, 2019

Change the Weather History Date:

Sunday, October 20, 2019

  Actual Average Record
Temperature  
Mean Temperature 42 °F 47 °F  
Max Temperature 48 °F 56 °F 75 °F (1963)
Min Temperature 35 °F 38 °F 18 °F (1972)
Degree Days  
Heating Degree Days 24 18  
Month to date heating degree days 284 306  
Since 1 July heating degree days 462 574  
Cooling Degree Days 0 0  
Month to date cooling degree days 5 0  
Year to date cooling degree days 348 313  
Moisture  
Dew Point 44 °F    
Average Humidity 96    
Maximum Humidity 100    
Minimum Humidity 76    
Precipitation  
Precipitation 0.18 in 0.13 in 2.00 in (1996)
Month to date precipitation 3.64 2.84  
Year to date precipitation 39.86 39.18  
Sea Level Pressure  
Sea Level Pressure 30.01 in    
Wind  
Wind Speed 3 mph ()    
Max Wind Speed 12 mph    
Max Gust Speed 15 mph    
Visibility 7.8 miles    
Events Rain    
T = Trace of Precipitation, MM = Missing Value Source: Averaged Metar Reports

Daily Weather History Graph

Daily Weather History Graph

Search for Another Location

Airport or City:

Astronomy

Oct. 20, 2019 Rise Set
Actual Time 7:18 AM EDT 6:13 PM EDT
Civil Twilight 6:50 AM EDT 6:41 PM EDT
Nautical Twilight 6:18 AM EDT 7:13 PM EDT
Astronomical Twilight 5:46 AM EDT 7:45 PM EDT
Moon 11:17 PM EDT (10/20) 1:46 PM EDT (10/20)
Length of Visible Light 11h 51m
Length of Day
10h 55m
Waning Gibbous, 59% of the Moon is Illuminated
Oct 20
Waning Gibbous
Oct 21
Last Quarter
Oct 27
New
Nov 4
First Quarter
Nov 12
Full

Hourly Weather History & Observations

Time (EDT) Temp. Windchill Dew Point Humidity Pressure Visibility Wind Dir Wind Speed Gust Speed Precip Events Conditions
12:53 AM 42.1 °F - 36.0 °F 79% 30.04 in 10.0 mi Calm Calm - N/A   Clear
1:53 AM 39.0 °F - 37.0 °F 93% 30.04 in 10.0 mi Calm Calm - N/A   Clear
2:53 AM 37.0 °F - 37.0 °F 100% 30.02 in 10.0 mi Calm Calm - N/A   Clear
3:53 AM 37.9 °F - 37.0 °F 97% 30.01 in 10.0 mi Calm Calm - N/A   Clear
4:53 AM 35.1 °F 31.0 °F 35.1 °F 100% 30.01 in 9.0 mi SSE 4.6 mph - N/A   Clear
5:53 AM 39.0 °F - 37.9 °F 96% 30.01 in 10.0 mi Calm Calm - N/A   Clear
6:53 AM 39.9 °F 36.7 °F 39.0 °F 97% 30.01 in 10.0 mi SE 4.6 mph - N/A   Clear
7:53 AM 44.1 °F 42.5 °F 39.9 °F 85% 30.03 in 10.0 mi SE 3.5 mph - N/A   Mostly Cloudy
8:53 AM 46.0 °F 44.8 °F 42.1 °F 86% 30.05 in 10.0 mi SE 3.5 mph - N/A   Overcast
9:53 AM 46.9 °F - 42.1 °F 83% 30.05 in 10.0 mi SSE 4.6 mph - 0.00 in   Overcast
10:53 AM 48.0 °F - 43.0 °F 83% 30.05 in 10.0 mi ESE 3.5 mph - 0.00 in Rain Light Rain
11:53 AM 46.9 °F - 44.1 °F 90% 30.07 in 5.0 mi South 5.8 mph - 0.03 in Rain Light Rain
12:53 PM 46.0 °F 43.9 °F 45.0 °F 96% 30.06 in 6.0 mi SSE 4.6 mph - 0.07 in Rain Light Rain
1:23 PM 46.9 °F - 46.9 °F 100% 30.02 in 4.0 mi ESE 3.5 mph - 0.02 in Rain Light Rain
1:51 PM 46.4 °F 45.2 °F 46.4 °F 100% 30.01 in 5.0 mi Variable 3.5 mph - 0.03 in Rain Light Rain
1:53 PM 46.9 °F - 46.9 °F 100% 30.04 in 5.0 mi East 4.6 mph - 0.03 in Rain Light Rain
2:05 PM 46.0 °F 44.8 °F 46.0 °F 100% 30.00 in 4.0 mi East 3.5 mph - 0.02 in Rain Light Rain
2:53 PM 46.0 °F 43.1 °F 46.0 °F 100% 30.02 in 4.0 mi East 5.8 mph - 0.03 in Rain Light Rain
3:25 PM 46.0 °F 43.9 °F 46.0 °F 100% 29.99 in 2.5 mi East 4.6 mph - 0.01 in Rain Light Rain
3:53 PM 46.9 °F - 46.9 °F 100% 30.02 in 2.5 mi Variable 5.8 mph - 0.01 in Rain Light Rain
4:01 PM 46.9 °F - 46.9 °F 100% 29.99 in 1.5 mi Variable 4.6 mph - 0.00 in Rain Light Rain
4:26 PM 46.9 °F - 46.9 °F 100% 29.98 in 3.0 mi East 5.8 mph - 0.01 in   Overcast
4:53 PM 46.9 °F - 46.9 °F 100% 30.02 in 7.0 mi Variable 4.6 mph - 0.01 in   Overcast
5:26 PM 46.9 °F - 46.9 °F 100% 29.98 in 10.0 mi East 5.8 mph - 0.00 in   Overcast
5:53 PM 46.9 °F - 46.9 °F 100% 30.00 in 10.0 mi Variable 5.8 mph - 0.00 in Rain Light Rain
6:22 PM 46.9 °F - 46.9 °F 100% 29.98 in 10.0 mi NE 3.5 mph - 0.00 in   Overcast
6:30 PM 46.9 °F - 46.0 °F 97% 29.98 in 10.0 mi NE 3.5 mph - 0.00 in   Mostly Cloudy
6:34 PM 46.9 °F - 46.0 °F 97% 29.98 in 10.0 mi Calm Calm - 0.00 in   Mostly Cloudy
6:44 PM 46.9 °F - 46.0 °F 97% 29.98 in 10.0 mi Calm Calm - 0.00 in   Mostly Cloudy
6:53 PM 46.9 °F - 46.0 °F 97% 30.01 in 10.0 mi ENE 3.5 mph - 0.00 in   Overcast
7:53 PM 46.0 °F 43.1 °F 46.0 °F 100% 30.01 in 10.0 mi East 5.8 mph - 0.00 in   Mostly Cloudy
8:33 PM 46.9 °F - 46.0 °F 97% 29.99 in 10.0 mi ENE 4.6 mph - 0.00 in   Overcast
8:53 PM 46.0 °F 44.8 °F 46.0 °F 100% 30.02 in 10.0 mi ENE 3.5 mph - 0.00 in   Overcast
9:53 PM 46.9 °F - 46.9 °F 100% 30.02 in 7.0 mi Variable 6.9 mph - N/A   Overcast
10:53 PM 46.9 °F - 46.9 °F 100% 30.01 in 9.0 mi NE 9.2 mph - N/A   Overcast
11:53 PM 46.0 °F 42.5 °F 46.0 °F 100% 30.01 in 5.0 mi NE 6.9 mph - N/A   Overcast